• Em Portugal
  • Lista de países
  • Para 7 dias
  • Temperatura da água
  • Mapas de satélite
  • Mapa do tempo
  • Widgets de tempo
  • user-avatar
    Iniciar Sessão

    Previsão horária em Mosul

    Hoje, 24 Janeiro, Quarta-feira

    Tempo Temperatura Precipitação Vento Pressão Humidade
    00:00 +12°C° 0 mm 2 m/s 730 mmHg 40%
    01:00 +12°C° 0 mm 2 m/s 730 mmHg 42%
    02:00 +12°C° 0 mm 2 m/s 731 mmHg 43%
    03:00 +10°C° 0 mm 2 m/s 731 mmHg 44%
    04:00 +10°C° 0 mm 2 m/s 731 mmHg 45%
    05:00 +10°C° 0 mm 3 m/s 731 mmHg 46%
    06:00 +10°C° 0 mm 3 m/s 731 mmHg 46%
    07:00 +10°C° 0 mm 3 m/s 731 mmHg 45%
    08:00 +11°C° 0 mm 3 m/s 732 mmHg 43%
    09:00 +11°C° 0 mm 3 m/s 732 mmHg 42%
    10:00 +13°C° 0 mm 4 m/s 732 mmHg 38%
    11:00 +14°C° 0 mm 4 m/s 732 mmHg 34%
    12:00 +17°C° 0 mm 4 m/s 733 mmHg 31%
    13:00 +17°C° 0 mm 4 m/s 732 mmHg 31%
    14:00 +18°C° 0 mm 4 m/s 732 mmHg 32%
    15:00 +18°C° 0 mm 4 m/s 732 mmHg 32%
    16:00 +17°C° 0 mm 3 m/s 732 mmHg 36%
    17:00 +16°C° 0 mm 3 m/s 732 mmHg 40%
    18:00 +15°C° 0 mm 2 m/s 732 mmHg 44%
    19:00 +14°C° 0 mm 2 m/s 732 mmHg 45%
    20:00 +14°C° 0 mm 2 m/s 732 mmHg 47%
    21:00 +13°C° 0 mm 2 m/s 732 mmHg 48%
    22:00 +12°C° 0 mm 3 m/s 732 mmHg 50%
    23:00 +12°C° 0 mm 3 m/s 732 mmHg 51%

    Amanhã, 25 Janeiro, Quinta-feira

    Tempo Temperatura Precipitação Vento Pressão Humidade
    00:00 +11°C° 0 mm 3 m/s 732 mmHg 52%
    01:00 +11°C° 0 mm 3 m/s 732 mmHg 53%
    02:00 +11°C° 0 mm 3 m/s 732 mmHg 55%
    03:00 +11°C° 0 mm 3 m/s 732 mmHg 56%
    04:00 +11°C° 0 mm 3 m/s 732 mmHg 56%
    05:00 +10°C° 0 mm 4 m/s 732 mmHg 56%
    06:00 +10°C° 0 mm 4 m/s 731 mmHg 57%
    07:00 +11°C° 0 mm 4 m/s 732 mmHg 55%
    08:00 +11°C° 0 mm 4 m/s 732 mmHg 53%
    09:00 +12°C° 0 mm 5 m/s 732 mmHg 50%
    10:00 +14°C° 0 mm 5 m/s 732 mmHg 46%
    11:00 +15°C° 0 mm 6 m/s 732 mmHg 42%
    12:00 +17°C° 0 mm 6 m/s 732 mmHg 38%
    13:00 +17°C° 0 mm 6 m/s 731 mmHg 37%
    14:00 +19°C° 0 mm 5 m/s 731 mmHg 36%
    15:00 +19°C° 0 mm 5 m/s 730 mmHg 35%
    16:00 +18°C° 0,1 mm 4 m/s 730 mmHg 39%
    17:00 +17°C° 0,1 mm 3 m/s 730 mmHg 42%
    18:00 +16°C° 0,1 mm 3 m/s 730 mmHg 45%
    19:00 +16°C° 0,1 mm 3 m/s 730 mmHg 46%
    20:00 +15°C° 0,1 mm 4 m/s 730 mmHg 47%
    21:00 +14°C° 0,1 mm 4 m/s 730 mmHg 48%
    22:00 +14°C° 0,4 mm 5 m/s 729 mmHg 48%
    23:00 +14°C° 0,4 mm 6 m/s 729 mmHg 49%

    Depois de amanhã, 26 Janeiro, Sexta-feira

    Tempo Temperatura Precipitação Vento Pressão Humidade
    00:00 +12°C° 0,4 mm 7 m/s 729 mmHg 49%
    01:00 +13°C° 0,6 mm 6 m/s 728 mmHg 52%
    02:00 +13°C° 0,6 mm 6 m/s 728 mmHg 55%
    03:00 +12°C° 0,6 mm 5 m/s 728 mmHg 58%
    04:00 +12°C° 0,5 mm 5 m/s 728 mmHg 62%
    05:00 +10°C° 0,5 mm 5 m/s 727 mmHg 66%
    06:00 +10°C° 0,5 mm 5 m/s 727 mmHg 70%
    07:00 +10°C° 0,2 mm 5 m/s 728 mmHg 69%
    08:00 +12°C° 0,2 mm 5 m/s 728 mmHg 67%
    09:00 +12°C° 0,2 mm 5 m/s 728 mmHg 65%
    10:00 +13°C° 0,1 mm 5 m/s 729 mmHg 60%
    11:00 +14°C° 0,1 mm 5 m/s 729 mmHg 55%
    12:00 +15°C° 0,1 mm 5 m/s 729 mmHg 50%
    13:00 +16°C° 0,3 mm 5 m/s 729 mmHg 49%
    14:00 +16°C° 0,3 mm 5 m/s 729 mmHg 49%
    15:00 +16°C° 0,3 mm 6 m/s 729 mmHg 49%
    16:00 +15°C° 0,4 mm 5 m/s 729 mmHg 51%
    17:00 +14°C° 0,4 mm 4 m/s 729 mmHg 54%
    18:00 +13°C° 0,4 mm 3 m/s 729 mmHg 56%
    19:00 +13°C° 0 mm 3 m/s 730 mmHg 57%
    20:00 +12°C° 0 mm 3 m/s 730 mmHg 57%
    21:00 +12°C° 0 mm 3 m/s 731 mmHg 58%
    22:00 +12°C° 0,1 mm 3 m/s 731 mmHg 58%
    23:00 +11°C° 0,1 mm 3 m/s 731 mmHg 59%

    27 Janeiro, Sábado

    Tempo Temperatura Precipitação Vento Pressão Humidade
    00:00 +11°C° 0,1 mm 3 m/s 731 mmHg 59%
    01:00 +11°C° 0,1 mm 3 m/s 731 mmHg 60%
    02:00 +10°C° 0,1 mm 2 m/s 731 mmHg 61%
    03:00 +10°C° 0,1 mm 2 m/s 731 mmHg 63%
    04:00 +9°C° 0,1 mm 2 m/s 731 mmHg 64%
    05:00 +9°C° 0,1 mm 2 m/s 730 mmHg 65%
    06:00 +10°C° 0,1 mm 1 m/s 730 mmHg 66%
    07:00 +10°C° 0 mm 1 m/s 731 mmHg 63%
    08:00 +11°C° 0 mm 1 m/s 731 mmHg 61%
    09:00 +11°C° 0 mm 1 m/s 731 mmHg 58%
    10:00 +11°C° 0,1 mm 1 m/s 731 mmHg 57%
    11:00 +12°C° 0,1 mm 1 m/s 731 mmHg 55%
    12:00 +12°C° 0,1 mm 1 m/s 731 mmHg 54%
    13:00 +12°C° 0,2 mm 2 m/s 731 mmHg 55%
    14:00 +12°C° 0,2 mm 2 m/s 731 mmHg 56%
    15:00 +11°C° 0,2 mm 3 m/s 731 mmHg 57%
    16:00 +10°C° 0,1 mm 3 m/s 731 mmHg 61%
    17:00 +10°C° 0,1 mm 3 m/s 732 mmHg 65%
    18:00 +9°C° 0,1 mm 3 m/s 732 mmHg 69%
    19:00 +9°C° 0 mm 3 m/s 732 mmHg 72%
    20:00 +8°C° 0 mm 3 m/s 733 mmHg 75%
    21:00 +8°C° 0 mm 3 m/s 733 mmHg 78%
    22:00 +7°C° 0 mm 2 m/s 734 mmHg 79%
    23:00 +8°C° 0 mm 1 m/s 734 mmHg 80%

    28 Janeiro, Domingo

    Tempo Temperatura Precipitação Vento Pressão Humidade
    00:00 +8°C° 0 mm 1 m/s 734 mmHg 81%
    01:00 +8°C° 0 mm 1 m/s 734 mmHg 81%
    02:00 +7°C° 0 mm 1 m/s 734 mmHg 82%
    03:00 +7°C° 0 mm 1 m/s 734 mmHg 82%
    04:00 +7°C° 0 mm 1 m/s 734 mmHg 82%
    05:00 +7°C° 0 mm 1 m/s 735 mmHg 82%
    06:00 +7°C° 0 mm 1 m/s 735 mmHg 82%
    07:00 +8°C° 0 mm 1 m/s 735 mmHg 77%
    08:00 +9°C° 0 mm 1 m/s 736 mmHg 72%
    09:00 +8°C° 0 mm 2 m/s 736 mmHg 67%
    10:00 +10°C° 0 mm 2 m/s 736 mmHg 59%
    11:00 +12°C° 0 mm 2 m/s 736 mmHg 51%
    12:00 +13°C° 0 mm 2 m/s 737 mmHg 43%
    13:00 +14°C° 0 mm 1 m/s 736 mmHg 40%
    14:00 +14°C° 0 mm 1 m/s 736 mmHg 36%
    15:00 +15°C° 0 mm 1 m/s 736 mmHg 33%
    16:00 +14°C° 0 mm 1 m/s 736 mmHg 37%
    17:00 +13°C° 0 mm 1 m/s 736 mmHg 40%
    18:00 +12°C° 0 mm 1 m/s 736 mmHg 44%
    19:00 +12°C° 0 mm 1 m/s 736 mmHg 46%
    20:00 +11°C° 0 mm 1 m/s 737 mmHg 47%
    21:00 +11°C° 0 mm 1 m/s 737 mmHg 49%
    22:00 +9°C° 0 mm 2 m/s 737 mmHg 50%
    23:00 +9°C° 0 mm 2 m/s 737 mmHg 51%

    29 Janeiro, Segunda-feira

    Tempo Temperatura Precipitação Vento Pressão Humidade
    00:00 +8°C° 0 mm 2 m/s 737 mmHg 52%
    01:00 +8°C° 0 mm 2 m/s 737 mmHg 51%
    02:00 +7°C° 0 mm 2 m/s 736 mmHg 51%
    03:00 +7°C° 0 mm 2 m/s 736 mmHg 51%
    04:00 +7°C° 0 mm 2 m/s 736 mmHg 51%
    05:00 +6°C° 0 mm 2 m/s 736 mmHg 50%
    06:00 +6°C° 0 mm 2 m/s 736 mmHg 50%
    07:00 +6°C° 0 mm 2 m/s 736 mmHg 47%
    08:00 +7°C° 0 mm 2 m/s 736 mmHg 44%
    09:00 +8°C° 0 mm 2 m/s 737 mmHg 40%
    10:00 +10°C° 0 mm 1 m/s 736 mmHg 37%
    11:00 +11°C° 0 mm 1 m/s 736 mmHg 34%
    12:00 +12°C° 0 mm 1 m/s 736 mmHg 31%
    13:00 +13°C° 0 mm 1 m/s 735 mmHg 31%
    14:00 +13°C° 0 mm 2 m/s 735 mmHg 31%
    15:00 +14°C° 0 mm 2 m/s 735 mmHg 31%
    16:00 +13°C° 0 mm 2 m/s 735 mmHg 34%
    17:00 +12°C° 0 mm 2 m/s 735 mmHg 38%
    18:00 +12°C° 0 mm 2 m/s 735 mmHg 42%
    19:00 +10°C° 0 mm 2 m/s 735 mmHg 43%
    20:00 +10°C° 0 mm 2 m/s 735 mmHg 45%
    21:00 +10°C° 0 mm 1 m/s 735 mmHg 46%
    22:00 +10°C° 0 mm 1 m/s 735 mmHg 47%
    23:00 +9°C° 0 mm 1 m/s 735 mmHg 48%
    Mostrar mais